Time,TemperatureF,DewpointF,PressureIn,WindDirection,WindDirectionDegrees,WindSpeedMPH,WindSpeedGustMPH,Humidity,HourlyPrecipIn,Conditions,Clouds,dailyrainin,SolarRadiationWatts/m^2,SoftwareType,DateUTC
2013-02-26 00:00:00,72.8,71.0,29.80,SSE,151,3.6,5.8,94,0.00,,,0.00,0.0,WeatherDisplay:10.37,2013-02-26 05:00:00,
2013-02-26 00:05:00,72.8,71.0,29.80,South,181,2.6,3.5,94,0.00,,,0.00,0.0,WeatherDisplay:10.37,2013-02-26 05:05:00,
2013-02-26 00:10:00,72.8,70.7,29.80,SSE,153,1.9,4.6,93,0.00,,,0.00,0.0,WeatherDisplay:10.37,2013-02-26 05:10:00,
2013-02-26 00:15:00,72.7,70.6,29.80,SSE,166,0.8,3.5,93,0.00,,,0.00,0.0,WeatherDisplay:10.37,2013-02-26 05:15:00,
2013-02-26 00:20:00,72.6,70.5,29.80,SSE,151,0.9,3.5,93,0.00,,,0.00,0.0,WeatherDisplay:10.37,2013-02-26 05:20:00,
2013-02-26 00:25:00,72.6,70.5,29.79,South,175,0.2,3.5,93,0.00,,,0.00,0.0,WeatherDisplay:10.37,2013-02-26 05:25:00,
2013-02-26 00:30:00,72.5,70.4,29.78,SSE,168,2.6,4.6,93,0.00,,,0.00,0.0,WeatherDisplay:10.37,2013-02-26 05:30:00,
2013-02-26 00:35:00,72.4,70.6,29.78,SSE,156,3.6,4.6,94,0.00,,,0.00,0.0,WeatherDisplay:10.37,2013-02-26 05:35:00,
2013-02-26 00:40:00,72.4,70.6,29.78,SE,135,2.9,3.5,94,0.00,,,0.00,0.0,WeatherDisplay:10.37,2013-02-26 05:40:00,
2013-02-26 00:45:00,72.4,70.6,29.78,SSW,208,0.9,3.5,94,0.00,,,0.00,0.0,WeatherDisplay:10.37,2013-02-26 05:45:00,
2013-02-26 00:50:00,72.5,70.7,29.78,SSE,151,1.1,4.6,94,0.00,,,0.00,0.0,WeatherDisplay:10.37,2013-02-26 05:50:00,
2013-02-26 00:55:00,72.5,70.7,29.78,SE,137,5.5,6.9,94,0.00,,,0.00,0.0,WeatherDisplay:10.37,2013-02-26 05:55:00,
2013-02-26 01:00:00,72.5,70.7,29.78,SSE,147,1.9,3.5,94,0.00,,,0.00,0.0,WeatherDisplay:10.37,2013-02-26 06:00:00,
2013-02-26 01:05:00,72.5,71.0,29.78,SSE,165,4.1,4.6,95,0.00,,,0.00,0.0,WeatherDisplay:10.37,2013-02-26 06:05:00,
2013-02-26 01:10:00,72.4,70.9,29.78,SSE,157,2.0,4.6,95,0.00,,,0.00,0.0,WeatherDisplay:10.37,2013-02-26 06:10:00,
2013-02-26 01:15:00,72.4,70.9,29.79,SSE,163,1.5,3.5,95,0.00,,,0.00,0.0,WeatherDisplay:10.37,2013-02-26 06:15:00,
2013-02-26 01:20:00,72.4,70.9,29.78,South,175,3.6,4.6,95,0.00,,,0.00,0.0,WeatherDisplay:10.37,2013-02-26 06:20:00,
2013-02-26 01:25:00,72.4,70.9,29.78,SE,135,3.8,6.0,95,0.00,,,0.00,0.0,WeatherDisplay:10.37,2013-02-26 06:25:00,
2013-02-26 01:30:00,72.4,70.9,29.78,SSE,159,1.6,3.5,95,0.00,,,0.00,0.0,WeatherDisplay:10.37,2013-02-26 06:30:00,
2013-02-26 01:35:00,72.3,70.8,29.77,SSE,148,3.3,5.8,95,0.00,,,0.00,0.0,WeatherDisplay:10.37,2013-02-26 06:35:00,
2013-02-26 01:40:00,72.3,71.1,29.77,South,174,1.4,4.6,96,0.00,,,0.00,0.0,WeatherDisplay:10.37,2013-02-26 06:40:00,
2013-02-26 01:45:00,72.2,71.0,29.78,SE,141,3.8,5.0,96,0.00,,,0.00,0.0,WeatherDisplay:10.37,2013-02-26 06:45:00,
2013-02-26 01:50:00,72.2,71.0,29.77,SSE,158,4.3,4.3,96,0.00,,,0.00,0.0,WeatherDisplay:10.37,2013-02-26 06:50:00,
2013-02-26 01:56:00,72.2,71.0,29.78,SSE,166,3.6,3.6,96,0.00,,,0.00,0.0,WeatherDisplay:10.37,2013-02-26 06:56:00,
2013-02-26 02:01:00,72.2,71.0,29.78,SSE,163,2.3,4.6,96,0.00,,,0.00,0.0,WeatherDisplay:10.37,2013-02-26 07:01:00,
2013-02-26 02:06:00,72.2,71.0,29.77,SE,138,1.8,4.0,96,0.00,,,0.00,0.0,WeatherDisplay:10.37,2013-02-26 07:06:00,
2013-02-26 02:11:00,72.3,71.1,29.77,South,169,3.6,5.0,96,0.00,,,0.00,0.0,WeatherDisplay:10.37,2013-02-26 07:11:00,
2013-02-26 02:16:00,72.3,71.1,29.77,SSE,163,4.2,5.8,96,0.00,,,0.00,0.0,WeatherDisplay:10.37,2013-02-26 07:16:00,
2013-02-26 02:21:00,72.3,71.1,29.76,SE,139,1.5,3.5,96,0.00,,,0.00,0.0,WeatherDisplay:10.37,2013-02-26 07:21:00,
2013-02-26 02:26:00,72.4,71.2,29.76,South,171,2.8,5.8,96,0.00,,,0.00,0.0,WeatherDisplay:10.37,2013-02-26 07:26:00,
2013-02-26 02:31:00,72.5,71.6,29.76,SSE,167,5.2,6.9,97,0.00,,,0.00,0.0,WeatherDisplay:10.37,2013-02-26 07:31:00,
2013-02-26 02:36:00,72.7,71.5,29.75,South,178,2.6,5.8,96,0.00,,,0.00,0.0,WeatherDisplay:10.37,2013-02-26 07:36:00,
2013-02-26 02:41:00,72.8,71.6,29.75,South,175,4.4,4.6,96,0.00,,,0.00,0.0,WeatherDisplay:10.37,2013-02-26 07:41:00,
2013-02-26 02:46:00,72.9,71.7,29.75,SSE,159,3.0,4.6,96,0.00,,,0.00,0.0,WeatherDisplay:10.37,2013-02-26 07:46:00,
2013-02-26 02:51:00,73.0,71.8,29.75,SSE,160,2.4,4.6,96,0.00,,,0.00,0.0,WeatherDisplay:10.37,2013-02-26 07:51:00,
2013-02-26 02:56:00,73.2,72.0,29.75,SSE,164,9.0,12.7,96,0.00,,,0.00,0.0,WeatherDisplay:10.37,2013-02-26 07:56:00,
2013-02-26 03:01:00,73.3,72.1,29.75,ESE,109,4.6,8.1,96,0.00,,,0.00,0.0,WeatherDisplay:10.37,2013-02-26 08:01:00,
2013-02-26 03:06:00,73.4,72.2,29.75,SSE,165,5.2,10.4,96,0.00,,,0.00,0.0,WeatherDisplay:10.37,2013-02-26 08:06:00,
2013-02-26 03:11:00,73.5,72.3,29.75,SSE,167,7.7,8.1,96,0.00,,,0.00,0.0,WeatherDisplay:10.37,2013-02-26 08:11:00,
2013-02-26 03:16:00,73.5,72.3,29.75,SSE,153,8.1,12.7,96,0.00,,,0.00,0.0,WeatherDisplay:10.37,2013-02-26 08:16:00,
2013-02-26 03:21:00,73.6,72.4,29.74,SE,144,7.8,11.5,96,0.00,,,0.00,0.0,WeatherDisplay:10.37,2013-02-26 08:21:00,
2013-02-26 03:26:00,73.6,72.4,29.74,SSE,163,5.6,8.1,96,0.00,,,0.00,0.0,WeatherDisplay:10.37,2013-02-26 08:26:00,
2013-02-26 03:31:00,73.6,72.4,29.73,SSE,153,5.3,11.5,96,0.00,,,0.00,0.0,WeatherDisplay:10.37,2013-02-26 08:31:00,
2013-02-26 03:36:00,73.6,72.1,29.73,SSW,202,7.3,11.5,95,0.00,,,0.00,0.0,WeatherDisplay:10.37,2013-02-26 08:36:00,
2013-02-26 03:41:00,73.6,72.1,29.72,SSE,157,4.9,8.1,95,0.00,,,0.00,0.0,WeatherDisplay:10.37,2013-02-26 08:41:00,
2013-02-26 03:46:00,73.5,71.7,29.72,SSW,197,7.5,11.5,94,0.00,,,0.00,0.0,WeatherDisplay:10.37,2013-02-26 08:46:00,
2013-02-26 03:51:00,73.5,71.7,29.72,SSW,213,4.7,6.9,94,0.00,,,0.00,0.0,WeatherDisplay:10.37,2013-02-26 08:51:00,
2013-02-26 03:56:00,73.5,71.7,29.72,SSW,200,3.6,9.2,94,0.00,,,0.00,0.0,WeatherDisplay:10.37,2013-02-26 08:56:00,
2013-02-26 04:01:00,73.5,71.4,29.72,SSW,198,3.0,8.1,93,0.00,,,0.00,0.0,WeatherDisplay:10.37,2013-02-26 09:01:00,
2013-02-26 04:06:00,73.5,71.4,29.72,SE,144,7.0,11.5,93,0.00,,,0.00,0.0,WeatherDisplay:10.37,2013-02-26 09:06:00,
2013-02-26 04:11:00,73.6,71.1,29.72,SSE,149,5.7,11.5,92,0.00,,,0.00,0.0,WeatherDisplay:10.37,2013-02-26 09:11:00,
2013-02-26 04:16:00,73.7,70.9,29.72,South,176,6.0,10.4,91,0.00,,,0.00,0.0,WeatherDisplay:10.37,2013-02-26 09:16:00,
2013-02-26 04:21:00,73.7,70.9,29.72,SSE,163,5.7,8.1,91,0.00,,,0.00,0.0,WeatherDisplay:10.37,2013-02-26 09:21:00,
2013-02-26 04:26:00,73.8,70.7,29.73,South,182,5.5,8.1,90,0.00,,,0.00,0.0,WeatherDisplay:10.37,2013-02-26 09:26:00,
2013-02-26 04:31:00,74.0,70.9,29.73,South,174,4.5,8.1,90,0.00,,,0.00,0.0,WeatherDisplay:10.37,2013-02-26 09:31:00,
2013-02-26 04:36:00,74.2,71.1,29.73,South,181,8.0,11.5,90,0.00,,,0.00,0.0,WeatherDisplay:10.37,2013-02-26 09:36:00,
2013-02-26 04:41:00,74.5,71.4,29.74,SSE,150,8.1,12.7,90,0.00,,,0.00,0.0,WeatherDisplay:10.37,2013-02-26 09:41:00,
2013-02-26 04:46:00,74.7,71.6,29.74,SE,146,5.6,8.1,90,0.00,,,0.00,0.0,WeatherDisplay:10.37,2013-02-26 09:46:00,
2013-02-26 04:51:00,74.8,72.0,29.74,SE,138,4.4,7.0,91,0.00,,,0.00,0.0,WeatherDisplay:10.37,2013-02-26 09:51:00,
2013-02-26 04:56:00,74.8,72.0,29.74,SSE,164,6.6,12.0,91,0.00,,,0.00,0.0,WeatherDisplay:10.37,2013-02-26 09:56:00,
2013-02-26 05:01:00,74.9,72.4,29.75,South,178,7.3,11.5,92,0.00,,,0.00,0.0,WeatherDisplay:10.37,2013-02-26 10:01:00,
2013-02-26 05:06:00,74.8,72.3,29.75,SSW,210,7.3,13.8,92,0.00,,,0.00,0.0,WeatherDisplay:10.37,2013-02-26 10:06:00,
2013-02-26 05:11:00,74.8,72.3,29.75,South,190,6.6,10.4,92,0.00,,,0.00,0.0,WeatherDisplay:10.37,2013-02-26 10:11:00,
2013-02-26 05:16:00,74.7,72.2,29.75,South,178,7.7,18.4,92,0.00,,,0.00,0.0,WeatherDisplay:10.37,2013-02-26 10:16:00,
2013-02-26 05:21:00,74.7,72.5,29.75,SE,145,7.7,11.5,93,0.00,,,0.00,0.0,WeatherDisplay:10.37,2013-02-26 10:21:00,
2013-02-26 05:26:00,74.7,72.5,29.75,WSW,248,7.3,12.7,93,0.00,,,0.00,0.0,WeatherDisplay:10.37,2013-02-26 10:26:00,
2013-02-26 05:31:00,74.6,72.4,29.75,SSE,159,8.6,12.7,93,0.00,,,0.00,0.0,WeatherDisplay:10.37,2013-02-26 10:31:00,
2013-02-26 05:36:00,74.4,72.6,29.75,WSW,246,5.9,11.5,94,0.00,,,0.00,0.0,WeatherDisplay:10.37,2013-02-26 10:36:00,
2013-02-26 05:41:00,74.4,72.6,29.75,South,178,4.9,11.5,94,0.00,,,0.00,0.0,WeatherDisplay:10.37,2013-02-26 10:41:00,
2013-02-26 05:46:00,74.3,72.5,29.75,South,175,6.1,11.5,94,0.00,,,0.00,0.0,WeatherDisplay:10.37,2013-02-26 10:46:00,
2013-02-26 05:51:00,74.3,72.5,29.75,South,188,8.8,15.0,94,0.00,,,0.00,0.0,WeatherDisplay:10.37,2013-02-26 10:51:00,
2013-02-26 05:56:00,74.3,72.5,29.76,South,183,4.7,9.2,94,0.00,,,0.00,0.0,WeatherDisplay:10.37,2013-02-26 10:56:00,
2013-02-26 06:01:00,74.3,72.5,29.75,SW,217,6.5,15.0,94,0.00,,,0.00,0.0,WeatherDisplay:10.37,2013-02-26 11:01:00,
2013-02-26 06:06:00,74.2,72.4,29.75,West,277,6.9,13.8,94,0.00,,,0.00,0.0,WeatherDisplay:10.37,2013-02-26 11:06:00,
2013-02-26 06:11:00,74.2,72.7,29.76,SSE,163,5.3,10.4,95,0.00,,,0.00,0.0,WeatherDisplay:10.37,2013-02-26 11:11:00,
2013-02-26 06:16:00,74.2,72.7,29.76,ESE,107,4.8,8.1,95,0.00,,,0.00,0.0,WeatherDisplay:10.37,2013-02-26 11:16:00,
2013-02-26 06:21:00,74.2,72.7,29.76,ESE,122,5.7,8.1,95,0.00,,,0.00,0.0,WeatherDisplay:10.37,2013-02-26 11:21:00,
2013-02-26 06:26:00,74.1,72.6,29.77,SSE,167,3.8,11.5,95,0.00,,,0.00,0.0,WeatherDisplay:10.37,2013-02-26 11:26:00,
2013-02-26 06:31:00,74.1,72.6,29.76,SSW,205,2.4,6.0,95,0.00,,,0.00,0.0,WeatherDisplay:10.37,2013-02-26 11:31:00,
2013-02-26 06:36:00,74.1,72.6,29.77,SSW,194,3.5,9.2,95,0.00,,,0.00,0.0,WeatherDisplay:10.37,2013-02-26 11:36:00,
2013-02-26 06:41:00,74.1,72.6,29.76,SSE,163,6.7,9.2,95,0.00,,,0.00,0.0,WeatherDisplay:10.37,2013-02-26 11:41:00,
2013-02-26 06:46:00,74.1,72.6,29.76,SSW,193,4.7,9.2,95,0.00,,,0.00,0.0,WeatherDisplay:10.37,2013-02-26 11:46:00,
2013-02-26 06:51:00,74.1,72.6,29.75,South,171,10.3,17.3,95,0.00,,,0.00,5.0,WeatherDisplay:10.37,2013-02-26 11:51:00,
2013-02-26 06:56:00,74.1,72.6,29.75,South,186,9.5,18.4,95,0.00,,,0.00,11.0,WeatherDisplay:10.37,2013-02-26 11:56:00,
2013-02-26 07:01:00,74.1,72.6,29.75,South,178,4.9,11.5,95,0.00,,,0.00,14.0,WeatherDisplay:10.37,2013-02-26 12:01:00,
2013-02-26 07:06:00,74.1,72.9,29.74,SW,215,9.7,15.0,96,0.00,,,0.00,12.0,WeatherDisplay:10.37,2013-02-26 12:06:00,
2013-02-26 07:11:00,74.0,72.8,29.75,South,181,7.8,9.2,96,0.00,,,0.00,21.0,WeatherDisplay:10.37,2013-02-26 12:11:00,
2013-02-26 07:16:00,74.0,72.8,29.75,SSE,166,8.3,19.6,96,0.00,,,0.00,32.0,WeatherDisplay:10.37,2013-02-26 12:16:00,
2013-02-26 07:21:00,74.1,72.9,29.75,SSE,159,4.7,12.7,96,0.00,,,0.00,32.0,WeatherDisplay:10.37,2013-02-26 12:21:00,
2013-02-26 07:26:00,74.2,73.0,29.76,SSW,203,5.4,11.5,96,0.00,,,0.00,42.0,WeatherDisplay:10.37,2013-02-26 12:26:00,
2013-02-26 07:31:00,74.3,73.1,29.75,SE,139,9.1,12.0,96,0.00,,,0.00,60.0,WeatherDisplay:10.37,2013-02-26 12:31:00,
2013-02-26 07:36:00,74.4,73.2,29.75,SE,136,6.2,19.6,96,0.00,,,0.00,84.0,WeatherDisplay:10.37,2013-02-26 12:36:00,
2013-02-26 07:41:00,74.6,73.4,29.75,SSE,161,5.4,11.0,96,0.00,,,0.00,77.0,WeatherDisplay:10.37,2013-02-26 12:41:00,
2013-02-26 07:46:00,74.7,73.2,29.75,SSW,194,9.3,16.1,95,0.00,,,0.00,76.0,WeatherDisplay:10.37,2013-02-26 12:46:00,
2013-02-26 07:51:00,74.7,73.2,29.74,South,174,7.8,15.0,95,0.00,,,0.00,53.0,WeatherDisplay:10.37,2013-02-26 12:51:00,
2013-02-26 07:56:00,74.6,73.1,29.74,SSE,158,7.1,11.5,95,0.00,,,0.00,32.0,WeatherDisplay:10.37,2013-02-26 12:56:00,
2013-02-26 08:01:00,74.6,73.4,29.75,SW,224,6.5,11.5,96,0.00,OVC,,0.00,35.0,WeatherDisplay:10.37,2013-02-26 13:01:00,
2013-02-26 08:06:00,74.5,73.3,29.75,SSE,166,12.9,19.6,96,0.00,OVC,,0.00,42.0,WeatherDisplay:10.37,2013-02-26 13:06:00,
2013-02-26 08:11:00,74.6,73.4,29.76,SSW,213,6.4,13.8,96,0.00,OVC,,0.00,56.0,WeatherDisplay:10.37,2013-02-26 13:11:00,
2013-02-26 08:16:00,74.6,73.4,29.76,SW,222,9.2,13.8,96,0.00,OVC,,0.00,63.0,WeatherDisplay:10.37,2013-02-26 13:16:00,
2013-02-26 08:21:00,74.7,73.5,29.76,SSW,195,11.1,16.1,96,0.00,OVC,,0.00,60.0,WeatherDisplay:10.37,2013-02-26 13:21:00,
2013-02-26 08:26:00,74.8,73.6,29.76,South,177,8.9,19.6,96,0.00,OVC,,0.00,67.0,WeatherDisplay:10.37,2013-02-26 13:26:00,
2013-02-26 08:31:00,74.8,73.3,29.77,SSW,195,8.3,13.8,95,0.00,OVC,,0.00,47.0,WeatherDisplay:10.37,2013-02-26 13:31:00,
2013-02-26 08:36:00,74.9,73.4,29.76,SW,218,9.6,20.7,95,0.00,OVC,,0.00,47.0,WeatherDisplay:10.37,2013-02-26 13:36:00,
2013-02-26 08:41:00,74.9,73.4,29.76,SW,236,5.4,11.0,95,0.00,OVC,,0.00,51.0,WeatherDisplay:10.37,2013-02-26 13:41:00,
2013-02-26 08:46:00,74.9,73.4,29.77,South,189,7.4,11.5,95,0.00,OVC,,0.00,37.0,WeatherDisplay:10.37,2013-02-26 13:46:00,
2013-02-26 08:51:00,75.0,73.5,29.77,SSW,193,6.4,11.5,95,0.00,OVC,,0.00,30.0,WeatherDisplay:10.37,2013-02-26 13:51:00,
2013-02-26 08:56:00,74.9,73.4,29.78,SSW,208,9.9,12.7,95,0.00,OVC,,0.00,33.0,WeatherDisplay:10.37,2013-02-26 13:56:00,
2013-02-26 09:01:00,74.9,73.4,29.78,SSW,199,9.6,17.3,95,0.00,OVC,,0.00,37.0,WeatherDisplay:10.37,2013-02-26 14:01:00,
2013-02-26 09:06:00,74.8,73.3,29.78,SSW,194,7.9,12.0,95,0.00,OVC,,0.00,44.0,WeatherDisplay:10.37,2013-02-26 14:06:00,
2013-02-26 09:11:00,74.7,73.5,29.79,South,180,5.8,14.0,96,0.00,OVC,,0.00,23.0,WeatherDisplay:10.37,2013-02-26 14:11:00,
2013-02-26 09:16:00,74.6,73.4,29.80,SSW,207,8.4,14.0,96,0.00,OVC,,0.00,14.0,WeatherDisplay:10.37,2013-02-26 14:16:00,
2013-02-26 09:21:00,74.5,73.3,29.80,SSE,166,10.4,19.6,96,0.00,OVC,,0.00,12.0,WeatherDisplay:10.37,2013-02-26 14:21:00,
2013-02-26 09:26:00,74.5,73.3,29.80,SSE,147,10.2,18.4,96,0.00,OVC,,0.00,14.0,WeatherDisplay:10.37,2013-02-26 14:26:00,
2013-02-26 09:31:00,74.5,73.3,29.80,SSW,209,8.3,12.0,96,0.00,OVC,,0.00,12.0,WeatherDisplay:10.37,2013-02-26 14:31:00,
2013-02-26 09:36:00,74.4,73.2,29.81,South,182,6.5,11.5,96,0.00,OVC,,0.00,19.0,WeatherDisplay:10.37,2013-02-26 14:36:00,
2013-02-26 09:41:00,74.3,73.1,29.81,SW,221,6.0,11.5,96,0.00,OVC,,0.00,16.0,WeatherDisplay:10.37,2013-02-26 14:41:00,
2013-02-26 09:46:00,74.0,72.8,29.81,SSW,192,9.5,11.5,96,0.01,RA,,0.01,25.0,WeatherDisplay:10.37,2013-02-26 14:46:00,
2013-02-26 09:51:00,73.8,72.9,29.81,SSW,203,5.9,10.4,97,0.01,RA,,0.01,28.0,WeatherDisplay:10.37,2013-02-26 14:51:00,
2013-02-26 09:56:00,73.7,73.1,29.81,South,177,8.3,10.4,98,0.01,OVC,,0.02,30.0,WeatherDisplay:10.37,2013-02-26 14:56:00,
2013-02-26 10:01:00,73.5,72.9,29.82,SSW,211,3.8,13.8,98,0.02,RA,,0.02,19.0,WeatherDisplay:10.37,2013-02-26 15:01:00,
2013-02-26 10:06:00,73.4,72.8,29.82,SSW,192,2.2,6.9,98,0.04,RA,,0.04,14.0,WeatherDisplay:10.37,2013-02-26 15:06:00,
2013-02-26 10:11:00,73.3,72.7,29.82,SSE,166,6.7,11.5,98,0.04,RA,,0.04,21.0,WeatherDisplay:10.37,2013-02-26 15:11:00,
2013-02-26 10:16:00,73.3,73.0,29.82,SSE,153,6.8,11.5,99,0.04,OVC,,0.04,42.0,WeatherDisplay:10.37,2013-02-26 15:16:00,
2013-02-26 10:21:00,73.3,73.0,29.81,South,187,8.8,12.7,99,0.05,RA,,0.05,46.0,WeatherDisplay:10.37,2013-02-26 15:21:00,
2013-02-26 10:26:00,73.3,73.0,29.82,SW,227,8.0,11.5,99,0.08,RA,,0.08,19.0,WeatherDisplay:10.37,2013-02-26 15:26:00,
2013-02-26 10:31:00,73.3,73.0,29.82,SSE,161,6.5,12.7,99,0.12,RA,,0.13,23.0,WeatherDisplay:10.37,2013-02-26 15:31:00,
2013-02-26 10:37:00,73.2,72.9,29.82,SSW,194,7.3,11.5,99,0.15,RA,,0.16,40.0,WeatherDisplay:10.37,2013-02-26 15:37:00,
2013-02-26 10:42:00,71.8,70.3,29.84,SSW,192,6.3,6.3,95,0.30,RA,,0.31,70.0,WeatherDisplay:10.37,2013-02-26 15:42:00,
2013-02-26 10:47:00,69.8,68.3,29.84,SSW,213,2.9,4.6,95,0.30,RA,,0.32,28.0,WeatherDisplay:10.37,2013-02-26 15:47:00,
2013-02-26 10:52:00,68.9,67.7,29.84,SSW,205,2.8,3.5,96,0.33,RA,,0.35,33.0,WeatherDisplay:10.37,2013-02-26 15:52:00,
2013-02-26 10:57:00,68.4,67.5,29.85,WSW,244,3.8,4.0,97,0.35,RA,,0.36,49.0,WeatherDisplay:10.37,2013-02-26 15:57:00,
2013-02-26 11:02:00,68.3,67.7,29.85,West,279,1.7,6.9,98,0.36,RA,,0.38,86.0,WeatherDisplay:10.37,2013-02-26 16:02:00,
2013-02-26 11:07:00,68.1,67.5,29.85,SW,215,3.3,8.1,98,0.35,RA,,0.39,95.0,WeatherDisplay:10.37,2013-02-26 16:07:00,
2013-02-26 11:12:00,68.1,67.8,29.86,SW,220,2.8,5.8,99,0.35,RA,,0.39,39.0,WeatherDisplay:10.37,2013-02-26 16:12:00,
2013-02-26 11:17:00,67.9,67.3,29.85,West,271,3.1,4.6,98,0.34,OVC,,0.39,67.0,WeatherDisplay:10.37,2013-02-26 16:17:00,
2013-02-26 11:22:00,67.7,67.1,29.85,West,275,1.7,3.5,98,0.33,OVC,,0.39,114.0,WeatherDisplay:10.37,2013-02-26 16:22:00,
2013-02-26 11:27:00,67.7,67.1,29.86,SW,235,0.8,2.3,98,0.31,OVC,,0.39,65.0,WeatherDisplay:10.37,2013-02-26 16:27:00,
2013-02-26 11:32:00,67.9,67.6,29.86,SSW,210,1.2,3.5,99,0.25,OVC,,0.39,111.0,WeatherDisplay:10.37,2013-02-26 16:32:00,
2013-02-26 11:37:00,68.0,67.7,29.86,SW,219,0.3,2.3,99,0.23,OVC,,0.39,272.0,WeatherDisplay:10.37,2013-02-26 16:37:00,
2013-02-26 11:42:00,68.2,67.9,29.86,West,263,3.9,6.9,99,0.08,OVC,,0.39,279.0,WeatherDisplay:10.37,2013-02-26 16:42:00,
2013-02-26 11:47:00,68.3,67.7,29.85,West,267,2.4,5.0,98,0.07,OVC,,0.39,207.0,WeatherDisplay:10.37,2013-02-26 16:47:00,
2013-02-26 11:52:00,68.3,67.4,29.85,WSW,242,4.1,8.1,97,0.04,OVC,,0.39,229.0,WeatherDisplay:10.37,2013-02-26 16:52:00,
2013-02-26 11:57:00,68.5,67.6,29.85,WNW,288,1.8,3.5,97,0.03,OVC,,0.39,323.0,WeatherDisplay:10.37,2013-02-26 16:57:00,
2013-02-26 12:02:00,69.0,68.4,29.85,SSW,194,0.9,3.5,98,0.01,OVC,,0.39,229.0,WeatherDisplay:10.37,2013-02-26 17:02:00,
2013-02-26 12:07:00,68.8,67.6,29.84,WSW,244,1.9,4.6,96,0.00,OVC,,0.39,265.0,WeatherDisplay:10.37,2013-02-26 17:07:00,
2013-02-26 12:12:00,69.2,68.3,29.84,SSW,209,0.6,2.3,97,0.00,OVC,,0.39,188.0,WeatherDisplay:10.37,2013-02-26 17:12:00,
2013-02-26 12:17:00,69.1,67.9,29.84,South,172,0.9,3.5,96,0.00,OVC,,0.39,193.0,WeatherDisplay:10.37,2013-02-26 17:17:00,
2013-02-26 12:22:00,69.0,67.8,29.84,SW,223,2.0,4.6,96,0.00,OVC,,0.39,125.0,WeatherDisplay:10.37,2013-02-26 17:22:00,
2013-02-26 12:27:00,68.9,67.4,29.84,West,281,1.6,4.6,95,0.00,OVC,,0.39,102.0,WeatherDisplay:10.37,2013-02-26 17:27:00,
2013-02-26 12:32:00,68.7,67.2,29.84,West,276,1.6,4.0,95,0.00,OVC,,0.39,95.0,WeatherDisplay:10.37,2013-02-26 17:32:00,
2013-02-26 12:37:00,68.6,67.1,29.83,West,269,2.9,5.8,95,0.00,OVC,,0.39,160.0,WeatherDisplay:10.37,2013-02-26 17:37:00,
2013-02-26 12:42:00,68.9,67.7,29.83,SSW,192,3.0,5.8,96,0.00,OVC,,0.39,213.0,WeatherDisplay:10.37,2013-02-26 17:42:00,
2013-02-26 12:47:00,69.2,68.0,29.83,SSW,205,0.8,2.3,96,0.00,OVC,,0.39,193.0,WeatherDisplay:10.37,2013-02-26 17:47:00,
2013-02-26 12:52:00,69.2,67.4,29.83,SSW,196,2.4,3.5,94,0.00,OVC,,0.39,151.0,WeatherDisplay:10.37,2013-02-26 17:52:00,
2013-02-26 12:57:00,69.4,67.9,29.82,South,178,0.5,1.2,95,0.00,OVC,,0.39,109.0,WeatherDisplay:10.37,2013-02-26 17:57:00,
2013-02-26 13:02:00,69.5,68.0,29.82,SSW,196,0.6,2.3,95,0.00,OVC,,0.39,104.0,WeatherDisplay:10.37,2013-02-26 18:02:00,
2013-02-26 13:07:00,69.5,68.0,29.82,South,190,2.0,4.0,95,0.00,OVC,,0.39,162.0,WeatherDisplay:10.37,2013-02-26 18:07:00,
2013-02-26 13:12:00,69.6,68.1,29.81,South,174,0.7,3.5,95,0.00,OVC,,0.39,181.0,WeatherDisplay:10.37,2013-02-26 18:12:00,
2013-02-26 13:17:00,70.1,68.6,29.81,SSE,154,1.4,3.5,95,0.00,OVC,,0.39,427.0,WeatherDisplay:10.37,2013-02-26 18:17:00,
2013-02-26 13:22:00,70.8,69.3,29.80,SSE,148,2.9,4.6,95,0.00,OVC,,0.39,601.0,WeatherDisplay:10.37,2013-02-26 18:22:00,
2013-02-26 13:27:00,71.5,69.7,29.80,SSW,205,2.2,3.5,94,0.00,OVC,,0.39,508.0,WeatherDisplay:10.37,2013-02-26 18:27:00,
2013-02-26 13:32:00,71.9,69.8,29.80,WSW,257,3.2,9.0,93,0.00,OVC,,0.39,413.0,WeatherDisplay:10.37,2013-02-26 18:32:00,
2013-02-26 13:37:00,72.1,70.0,29.80,South,180,2.9,5.8,93,0.00,OVC,,0.39,415.0,WeatherDisplay:10.37,2013-02-26 18:37:00,
2013-02-26 13:42:00,72.6,70.5,29.80,South,179,0.6,2.3,93,0.00,OVC,,0.39,427.0,WeatherDisplay:10.37,2013-02-26 18:42:00,
2013-02-26 13:47:00,73.0,70.5,29.80,WSW,254,3.7,5.8,92,0.00,OVC,,0.39,394.0,WeatherDisplay:10.37,2013-02-26 18:47:00,
2013-02-26 13:52:00,73.0,70.2,29.80,WSW,240,4.5,10.4,91,0.00,OVC,,0.39,417.0,WeatherDisplay:10.37,2013-02-26 18:52:00,
2013-02-26 13:57:00,73.9,71.7,29.80,West,261,3.4,5.8,93,0.00,OVC,,0.39,791.0,WeatherDisplay:10.37,2013-02-26 18:57:00,
2013-02-26 14:02:00,74.2,71.1,29.80,SW,235,5.6,7.0,90,0.00,OVC,,0.39,875.0,WeatherDisplay:10.37,2013-02-26 19:02:00,
2013-02-26 14:07:00,73.9,70.5,29.80,West,264,3.0,6.0,89,0.00,OVC,,0.39,396.0,WeatherDisplay:10.37,2013-02-26 19:07:00,
2013-02-26 14:12:00,73.9,70.8,29.80,South,191,3.7,6.9,90,0.00,OVC,,0.39,557.0,WeatherDisplay:10.37,2013-02-26 19:12:00,
2013-02-26 14:17:00,73.9,70.5,29.81,SSW,204,5.7,10.4,89,0.00,OVC,,0.39,290.0,WeatherDisplay:10.37,2013-02-26 19:17:00,
2013-02-26 14:22:00,73.3,70.2,29.81,SSW,210,4.8,6.9,90,0.00,OVC,,0.39,369.0,WeatherDisplay:10.37,2013-02-26 19:22:00,
2013-02-26 14:27:00,73.1,70.0,29.81,South,178,4.5,6.9,90,0.00,OVC,,0.39,482.0,WeatherDisplay:10.37,2013-02-26 19:27:00,
2013-02-26 14:32:00,73.0,69.6,29.81,West,271,5.0,11.0,89,0.00,OVC,,0.39,330.0,WeatherDisplay:10.37,2013-02-26 19:32:00,
2013-02-26 14:37:00,72.7,69.3,29.82,WSW,238,5.7,8.1,89,0.00,OVC,,0.39,287.0,WeatherDisplay:10.37,2013-02-26 19:37:00,
2013-02-26 14:42:00,72.3,68.9,29.82,WSW,242,3.6,7.0,89,0.01,RA,,0.40,288.0,WeatherDisplay:10.37,2013-02-26 19:42:00,
2013-02-26 14:47:00,71.9,68.5,29.82,WSW,256,4.5,6.9,89,0.01,RA,,0.40,276.0,WeatherDisplay:10.37,2013-02-26 19:47:00,
2013-02-26 14:52:00,71.8,69.0,29.82,West,263,2.6,4.0,91,0.01,OVC,,0.40,279.0,WeatherDisplay:10.37,2013-02-26 19:52:00,
2013-02-26 14:57:00,71.7,68.3,29.81,WSW,238,3.2,4.0,89,0.01,OVC,,0.40,316.0,WeatherDisplay:10.37,2013-02-26 19:57:00,
2013-02-26 15:02:00,71.4,67.7,29.81,West,261,2.9,6.9,88,0.01,OVC,,0.40,330.0,WeatherDisplay:10.37,2013-02-26 20:02:00,
2013-02-26 15:07:00,71.5,67.4,29.81,WNW,282,2.4,6.9,87,0.01,OVC,,0.40,311.0,WeatherDisplay:10.37,2013-02-26 20:07:00,
2013-02-26 15:12:00,71.5,67.4,29.81,WSW,237,3.2,3.5,87,0.01,OVC,,0.40,267.0,WeatherDisplay:10.37,2013-02-26 20:12:00,
2013-02-26 15:17:00,71.5,68.1,29.81,SSW,209,0.3,3.0,89,0.01,OVC,,0.40,283.0,WeatherDisplay:10.37,2013-02-26 20:17:00,
2013-02-26 15:22:00,72.1,68.7,29.81,WSW,244,0.4,2.0,89,0.01,OVC,,0.40,255.0,WeatherDisplay:10.37,2013-02-26 20:22:00,
2013-02-26 15:27:00,71.8,67.7,29.81,WSW,257,5.7,10.4,87,0.01,OVC,,0.40,243.0,WeatherDisplay:10.37,2013-02-26 20:27:00,
2013-02-26 15:32:00,71.6,67.9,29.81,West,263,2.8,5.0,88,0.01,OVC,,0.40,257.0,WeatherDisplay:10.37,2013-02-26 20:32:00,
2013-02-26 15:37:00,71.8,68.1,29.81,West,263,2.4,4.0,88,0.01,OVC,,0.40,264.0,WeatherDisplay:10.37,2013-02-26 20:37:00,
2013-02-26 15:42:00,72.0,67.9,29.81,SSW,208,2.0,3.5,87,0.00,OVC,,0.40,221.0,WeatherDisplay:10.37,2013-02-26 20:42:00,
2013-02-26 15:47:00,71.9,68.2,29.81,WSW,239,1.2,3.5,88,0.00,OVC,,0.40,239.0,WeatherDisplay:10.37,2013-02-26 20:47:00,
2013-02-26 15:52:00,71.8,68.1,29.81,SSW,209,1.6,5.0,88,0.00,OVC,,0.40,294.0,WeatherDisplay:10.37,2013-02-26 20:52:00,
2013-02-26 15:57:00,72.0,67.9,29.82,SW,221,4.4,6.9,87,0.00,OVC,,0.40,299.0,WeatherDisplay:10.37,2013-02-26 20:57:00,
2013-02-26 16:02:00,73.0,68.6,29.82,West,277,2.9,6.0,86,0.00,OVC,,0.40,471.0,WeatherDisplay:10.37,2013-02-26 21:02:00,
2013-02-26 16:07:00,73.0,67.5,29.82,SSW,212,4.9,5.8,83,0.00,OVC,,0.40,526.0,WeatherDisplay:10.37,2013-02-26 21:07:00,
2013-02-26 16:12:00,73.0,66.8,29.82,WSW,252,3.3,8.1,81,0.00,OVC,,0.40,330.0,WeatherDisplay:10.37,2013-02-26 21:12:00,
2013-02-26 16:17:00,72.9,67.1,29.82,WSW,250,3.0,5.8,82,0.00,OVC,,0.40,427.0,WeatherDisplay:10.37,2013-02-26 21:17:00,
2013-02-26 16:22:00,73.4,67.2,29.82,SSW,213,5.7,8.1,81,0.00,OVC,,0.40,396.0,WeatherDisplay:10.37,2013-02-26 21:22:00,
2013-02-26 16:27:00,73.6,67.8,29.82,South,182,1.0,4.6,82,0.00,OVC,,0.40,362.0,WeatherDisplay:10.37,2013-02-26 21:27:00,
2013-02-26 16:32:00,73.5,67.3,29.82,WSW,254,4.6,4.6,81,0.00,OVC,,0.40,357.0,WeatherDisplay:10.37,2013-02-26 21:32:00,
2013-02-26 16:37:00,73.0,66.8,29.82,SSW,199,2.7,6.0,81,0.00,OVC,,0.40,336.0,WeatherDisplay:10.37,2013-02-26 21:37:00,
2013-02-26 16:43:00,73.2,66.7,29.82,WSW,242,4.1,6.9,80,0.00,OVC,,0.40,336.0,WeatherDisplay:10.37,2013-02-26 21:43:00,
2013-02-26 16:48:00,73.1,66.2,29.83,SW,221,3.8,6.9,79,0.00,OVC,,0.40,149.0,WeatherDisplay:10.37,2013-02-26 21:48:00,
2013-02-26 16:53:00,72.6,66.4,29.82,West,259,1.3,3.0,81,0.00,OVC,,0.40,90.0,WeatherDisplay:10.37,2013-02-26 21:53:00,
2013-02-26 16:58:00,72.2,66.4,29.82,WSW,251,3.3,3.5,82,0.00,OVC,,0.40,90.0,WeatherDisplay:10.37,2013-02-26 21:58:00,
2013-02-26 17:03:00,71.8,66.4,29.83,WSW,245,1.9,5.8,83,0.00,CLR,,0.40,120.0,WeatherDisplay:10.37,2013-02-26 22:03:00,
2013-02-26 17:08:00,71.6,66.8,29.83,West,267,3.8,4.0,85,0.00,CLR,,0.40,111.0,WeatherDisplay:10.37,2013-02-26 22:08:00,
2013-02-26 17:13:00,71.5,67.1,29.82,WSW,257,2.1,6.9,86,0.00,CLR,,0.40,90.0,WeatherDisplay:10.37,2013-02-26 22:13:00,
2013-02-26 17:18:00,71.3,67.2,29.82,WSW,242,0.0,3.5,87,0.00,CLR,,0.40,83.0,WeatherDisplay:10.37,2013-02-26 22:18:00,
2013-02-26 17:23:00,71.2,67.5,29.82,SW,225,0.5,1.2,88,0.00,CLR,,0.40,77.0,WeatherDisplay:10.37,2013-02-26 22:23:00,
2013-02-26 17:28:00,71.1,67.4,29.82,SW,221,1.4,5.8,88,0.00,CLR,,0.40,65.0,WeatherDisplay:10.37,2013-02-26 22:28:00,
2013-02-26 17:33:00,71.1,67.4,29.82,WSW,248,1.1,3.5,88,0.00,SCT,,0.40,58.0,WeatherDisplay:10.37,2013-02-26 22:33:00,
2013-02-26 17:38:00,70.9,67.2,29.82,West,279,0.6,3.5,88,0.00,SCT,,0.40,51.0,WeatherDisplay:10.37,2013-02-26 22:38:00,
2013-02-26 17:43:00,70.7,67.0,29.82,SW,226,4.0,8.1,88,0.00,BKN,,0.40,47.0,WeatherDisplay:10.37,2013-02-26 22:43:00,
2013-02-26 17:48:00,70.5,66.8,29.83,West,273,1.0,3.5,88,0.00,BKN,,0.40,37.0,WeatherDisplay:10.37,2013-02-26 22:48:00,
2013-02-26 17:53:00,70.4,67.0,29.82,SSW,206,1.8,4.0,89,0.00,BKN,,0.40,37.0,WeatherDisplay:10.37,2013-02-26 22:53:00,
2013-02-26 17:58:00,70.3,66.9,29.83,SW,227,0.8,4.6,89,0.00,BKN,,0.40,32.0,WeatherDisplay:10.37,2013-02-26 22:58:00,
2013-02-26 18:03:00,70.3,67.2,29.83,SSW,193,1.1,3.5,90,0.00,BKN,,0.40,25.0,WeatherDisplay:10.37,2013-02-26 23:03:00,
2013-02-26 18:08:00,70.1,67.0,29.83,SSW,211,1.4,5.0,90,0.00,BKN,,0.40,19.0,WeatherDisplay:10.37,2013-02-26 23:08:00,
2013-02-26 18:13:00,70.0,67.3,29.83,WNW,284,1.0,3.5,91,0.00,BKN,,0.40,14.0,WeatherDisplay:10.37,2013-02-26 23:13:00,
2013-02-26 18:18:00,69.8,67.1,29.84,SW,214,0.6,2.3,91,0.00,,,0.40,9.0,WeatherDisplay:10.37,2013-02-26 23:18:00,
2013-02-26 18:23:00,69.7,67.0,29.84,WSW,239,1.0,2.3,91,0.00,,,0.40,5.0,WeatherDisplay:10.37,2013-02-26 23:23:00,
2013-02-26 18:28:00,69.5,67.1,29.84,SW,221,0.1,1.2,92,0.00,,,0.40,0.0,WeatherDisplay:10.37,2013-02-26 23:28:00,
2013-02-26 18:33:00,69.4,67.0,29.84,SW,228,0.0,0.0,92,0.00,,,0.40,0.0,WeatherDisplay:10.37,2013-02-26 23:33:00,
2013-02-26 18:38:00,69.3,67.2,29.84,SW,223,0.1,1.2,93,0.00,,,0.40,0.0,WeatherDisplay:10.37,2013-02-26 23:38:00,
2013-02-26 18:43:00,69.2,67.1,29.84,WSW,256,1.0,3.5,93,0.00,,,0.40,0.0,WeatherDisplay:10.37,2013-02-26 23:43:00,
2013-02-26 18:48:00,69.1,67.0,29.85,WSW,239,1.6,3.5,93,0.00,,,0.40,0.0,WeatherDisplay:10.37,2013-02-26 23:48:00,
2013-02-26 18:53:00,69.0,66.9,29.85,SSW,213,0.0,1.2,93,0.00,,,0.40,0.0,WeatherDisplay:10.37,2013-02-26 23:53:00,
2013-02-26 18:58:00,69.0,66.9,29.85,SW,225,2.2,4.6,93,0.00,,,0.40,0.0,WeatherDisplay:10.37,2013-02-26 23:58:00,
2013-02-26 19:03:00,68.9,66.8,29.85,West,269,0.7,3.5,93,0.00,,,0.40,0.0,WeatherDisplay:10.37,2013-02-27 00:03:00,
2013-02-26 19:08:00,68.8,67.0,29.85,West,269,1.5,3.5,94,0.00,,,0.40,0.0,WeatherDisplay:10.37,2013-02-27 00:08:00,
2013-02-26 19:13:00,68.8,67.0,29.85,WSW,239,2.3,4.6,94,0.00,,,0.40,0.0,WeatherDisplay:10.37,2013-02-27 00:13:00,
2013-02-26 19:18:00,68.8,67.0,29.85,WSW,240,0.9,3.5,94,0.00,,,0.40,0.0,WeatherDisplay:10.37,2013-02-27 00:18:00,
2013-02-26 19:23:00,68.8,67.0,29.85,SW,234,2.2,3.5,94,0.00,,,0.40,0.0,WeatherDisplay:10.37,2013-02-27 00:23:00,
2013-02-26 19:28:00,68.7,66.6,29.85,WSW,252,1.9,3.5,93,0.00,,,0.40,0.0,WeatherDisplay:10.37,2013-02-27 00:28:00,
2013-02-26 19:33:00,68.7,66.6,29.86,WSW,255,2.9,6.9,93,0.00,,,0.40,0.0,WeatherDisplay:10.37,2013-02-27 00:33:00,
2013-02-26 19:38:00,68.7,66.3,29.86,WNW,283,1.6,5.8,92,0.00,,,0.40,0.0,WeatherDisplay:10.37,2013-02-27 00:38:00,
2013-02-26 19:43:00,68.6,65.9,29.86,SW,233,2.1,5.8,91,0.00,,,0.40,0.0,WeatherDisplay:10.37,2013-02-27 00:43:00,
2013-02-26 19:48:00,68.5,65.4,29.86,SSW,206,1.2,4.0,90,0.00,,,0.40,0.0,WeatherDisplay:10.37,2013-02-27 00:48:00,
2013-02-26 19:53:00,68.5,65.4,29.86,WSW,243,0.3,1.2,90,0.00,,,0.40,0.0,WeatherDisplay:10.37,2013-02-27 00:53:00,
2013-02-26 19:58:00,68.3,65.3,29.86,WSW,246,0.3,2.3,90,0.00,,,0.40,0.0,WeatherDisplay:10.37,2013-02-27 00:58:00,
2013-02-26 20:03:00,68.1,64.7,29.86,WSW,246,0.6,3.5,89,0.00,,,0.40,0.0,WeatherDisplay:10.37,2013-02-27 01:03:00,
2013-02-26 20:08:00,68.1,64.7,29.87,West,274,1.3,3.5,89,0.00,,,0.40,0.0,WeatherDisplay:10.37,2013-02-27 01:08:00,
2013-02-26 20:13:00,68.0,64.6,29.86,West,270,0.3,1.2,89,0.00,,,0.40,0.0,WeatherDisplay:10.37,2013-02-27 01:13:00,
2013-02-26 20:18:00,67.8,64.8,29.87,West,269,0.0,0.0,90,0.00,,,0.40,0.0,WeatherDisplay:10.37,2013-02-27 01:18:00,
2013-02-26 20:23:00,67.6,64.6,29.87,West,269,0.3,1.2,90,0.00,,,0.40,0.0,WeatherDisplay:10.37,2013-02-27 01:23:00,
2013-02-26 20:28:00,67.5,64.5,29.87,SSW,207,2.7,3.5,90,0.00,,,0.40,0.0,WeatherDisplay:10.37,2013-02-27 01:28:00,
2013-02-26 20:33:00,67.6,64.6,29.87,West,273,0.4,3.5,90,0.00,,,0.40,0.0,WeatherDisplay:10.37,2013-02-27 01:33:00,
2013-02-26 20:38:00,67.6,64.6,29.87,SW,223,0.0,0.0,90,0.00,,,0.40,0.0,WeatherDisplay:10.37,2013-02-27 01:38:00,
2013-02-26 20:43:00,67.5,64.5,29.87,WNW,291,1.0,2.3,90,0.00,,,0.40,0.0,WeatherDisplay:10.37,2013-02-27 01:43:00,
2013-02-26 20:48:00,67.5,64.5,29.87,West,263,2.2,4.6,90,0.00,,,0.40,0.0,WeatherDisplay:10.37,2013-02-27 01:48:00,
2013-02-26 20:53:00,67.5,64.1,29.87,SW,223,1.1,3.5,89,0.00,,,0.40,0.0,WeatherDisplay:10.37,2013-02-27 01:53:00,
2013-02-26 20:58:00,67.6,64.2,29.87,WSW,244,1.2,3.5,89,0.00,,,0.40,0.0,WeatherDisplay:10.37,2013-02-27 01:58:00,
2013-02-26 21:03:00,67.7,64.0,29.87,WSW,240,4.0,8.1,88,0.00,,,0.40,0.0,WeatherDisplay:10.37,2013-02-27 02:03:00,
2013-02-26 21:08:00,67.7,64.0,29.88,WNW,300,0.7,4.6,88,0.00,,,0.40,0.0,WeatherDisplay:10.37,2013-02-27 02:08:00,
2013-02-26 21:13:00,67.8,64.1,29.88,West,262,1.2,4.0,88,0.00,,,0.40,0.0,WeatherDisplay:10.37,2013-02-27 02:13:00,
2013-02-26 21:18:00,67.7,64.0,29.89,WNW,289,0.3,3.5,88,0.00,,,0.40,0.0,WeatherDisplay:10.37,2013-02-27 02:18:00,
2013-02-26 21:23:00,67.7,64.0,29.89,WNW,287,1.2,3.5,88,0.00,,,0.40,0.0,WeatherDisplay:10.37,2013-02-27 02:23:00,
2013-02-26 21:28:00,67.6,63.9,29.88,WNW,287,2.2,6.9,88,0.00,,,0.40,0.0,WeatherDisplay:10.37,2013-02-27 02:28:00,
2013-02-26 21:33:00,67.6,63.9,29.88,WNW,298,2.4,5.8,88,0.00,,,0.40,0.0,WeatherDisplay:10.37,2013-02-27 02:33:00,
2013-02-26 21:38:00,67.7,64.0,29.89,SW,221,3.9,6.9,88,0.00,,,0.40,0.0,WeatherDisplay:10.37,2013-02-27 02:38:00,
2013-02-26 21:43:00,67.7,64.0,29.89,West,270,1.4,4.6,88,0.00,,,0.40,0.0,WeatherDisplay:10.37,2013-02-27 02:43:00,
2013-02-26 21:48:00,67.6,64.2,29.89,West,265,2.0,2.3,89,0.00,,,0.40,0.0,WeatherDisplay:10.37,2013-02-27 02:48:00,
2013-02-26 21:53:00,67.6,64.2,29.89,WSW,252,2.5,3.5,89,0.00,,,0.40,0.0,WeatherDisplay:10.37,2013-02-27 02:53:00,
2013-02-26 21:58:00,67.5,64.1,29.89,WNW,282,1.3,2.0,89,0.00,,,0.40,0.0,WeatherDisplay:10.37,2013-02-27 02:58:00,
2013-02-26 22:04:00,67.4,64.4,29.89,SW,231,0.6,2.3,90,0.00,,,0.40,0.0,WeatherDisplay:10.37,2013-02-27 03:04:00,
2013-02-26 22:09:00,67.3,64.3,29.89,West,276,1.2,1.2,90,0.00,,,0.40,0.0,WeatherDisplay:10.37,2013-02-27 03:09:00,
2013-02-26 22:14:00,67.2,64.5,29.90,SW,233,0.7,3.5,91,0.00,,,0.40,0.0,WeatherDisplay:10.37,2013-02-27 03:14:00,
2013-02-26 22:19:00,67.1,64.4,29.90,SW,225,1.3,3.5,91,0.00,,,0.40,0.0,WeatherDisplay:10.37,2013-02-27 03:19:00,
2013-02-26 22:24:00,67.0,64.3,29.90,West,260,4.1,6.9,91,0.00,,,0.40,0.0,WeatherDisplay:10.37,2013-02-27 03:24:00,
2013-02-26 22:29:00,66.9,64.2,29.90,West,261,1.4,5.8,91,0.00,,,0.40,0.0,WeatherDisplay:10.37,2013-02-27 03:29:00,
2013-02-26 22:34:00,66.9,64.2,29.90,SW,226,1.4,3.0,91,0.00,,,0.40,0.0,WeatherDisplay:10.37,2013-02-27 03:34:00,
2013-02-26 22:39:00,66.8,64.4,29.91,WSW,252,1.5,4.0,92,0.00,,,0.40,0.0,WeatherDisplay:10.37,2013-02-27 03:39:00,
2013-02-26 22:44:00,66.8,64.4,29.91,WNW,297,0.7,3.5,92,0.00,,,0.40,0.0,WeatherDisplay:10.37,2013-02-27 03:44:00,
2013-02-26 22:49:00,66.7,64.3,29.91,WSW,254,2.7,4.6,92,0.00,,,0.40,0.0,WeatherDisplay:10.37,2013-02-27 03:49:00,
2013-02-26 22:54:00,66.6,64.2,29.91,WSW,250,3.0,6.9,92,0.00,,,0.40,0.0,WeatherDisplay:10.37,2013-02-27 03:54:00,
2013-02-26 22:59:00,66.7,64.3,29.91,WSW,254,0.9,5.0,92,0.00,,,0.40,0.0,WeatherDisplay:10.37,2013-02-27 03:59:00,
2013-02-26 23:04:00,66.7,64.3,29.91,WNW,292,3.2,7.0,92,0.00,,,0.40,0.0,WeatherDisplay:10.37,2013-02-27 04:04:00,
2013-02-26 23:09:00,66.7,64.3,29.91,West,273,2.2,4.6,92,0.00,,,0.40,0.0,WeatherDisplay:10.37,2013-02-27 04:09:00,
2013-02-26 23:14:00,66.7,64.0,29.91,SW,227,3.1,4.6,91,0.00,,,0.40,0.0,WeatherDisplay:10.37,2013-02-27 04:14:00,
2013-02-26 23:19:00,66.6,63.9,29.91,WSW,250,2.1,4.6,91,0.00,,,0.40,0.0,WeatherDisplay:10.37,2013-02-27 04:19:00,
2013-02-26 23:24:00,66.5,63.8,29.91,WSW,250,1.8,4.0,91,0.00,,,0.40,0.0,WeatherDisplay:10.37,2013-02-27 04:24:00,
2013-02-26 23:29:00,66.5,63.5,29.91,WNW,288,2.5,3.5,90,0.00,,,0.40,0.0,WeatherDisplay:10.37,2013-02-27 04:29:00,
2013-02-26 23:34:00,66.4,63.4,29.91,WSW,254,2.5,8.1,90,0.00,,,0.40,0.0,WeatherDisplay:10.37,2013-02-27 04:34:00,
2013-02-26 23:39:00,66.4,63.4,29.91,West,275,1.6,3.5,90,0.00,,,0.40,0.0,WeatherDisplay:10.37,2013-02-27 04:39:00,
2013-02-26 23:44:00,66.2,63.2,29.91,WSW,242,0.7,2.3,90,0.00,,,0.40,0.0,WeatherDisplay:10.37,2013-02-27 04:44:00,
2013-02-26 23:49:00,66.1,63.1,29.91,WNW,287,2.3,3.5,90,0.00,,,0.40,0.0,WeatherDisplay:10.37,2013-02-27 04:49:00,
2013-02-26 23:54:00,66.0,63.0,29.91,WSW,237,3.2,8.1,90,0.00,,,0.40,0.0,WeatherDisplay:10.37,2013-02-27 04:54:00,
2013-02-26 23:59:00,66.0,63.0,29.91,West,269,3.2,6.9,90,0.00,,,0.40,0.0,WeatherDisplay:10.37,2013-02-27 04:59:00,